EW6187 Weather Reports


time (UTC)temp
C
wind
direction
speed
KPH
gust
KPH
rain 1hr
cm
rain 24hr
cm
rain mn
cm
humidity
%
barometer
mb
20260510223704 17 186 0.0 4.8 0.00 0.30 0.00 80 1012.4
20260510222704 17 177 1.6 3.2 0.00 0.38 0.00 80 1012.5
20260510222204 17 181 1.6 3.2 0.00 0.41 0.00 81 1012.5
20260510221704 17 167 1.6 3.2 0.00 0.43 0.00 82 1012.3
20260510221204 17 156 1.6 1.6 0.00 0.46 0.00 82 1012.4
20260510220704 17 205 1.6 3.2 0.00 0.48 0.00 82 1012.5
20260510220205 17 253 1.6 3.2 0.00 0.51 0.00 82 1012.4
20260510215704 17 236 1.6 3.2 0.00 0.53 0.00 83 1012.3
20260510215204 17 202 1.6 3.2 0.00 0.66 0.00 83 1012.1
20260510214704 18 212 1.6 3.2 0.00 0.71 0.00 83 1012.1
20260510214205 18 186 1.6 4.8 0.00 0.74 0.00 82 1012.3
20260510213204 18 217 1.6 4.8 0.00 0.76 0.00 80 1012.3
20260510212704 18 185 1.6 1.6 0.00 0.76 0.00 80 1012.2
20260510212205 18 198 0.0 1.6 0.00 0.79 0.00 79 1012.1
20260510211204 18 239 0.0 1.6 0.00 0.79 0.00 74 1012.0
20260510210704 18 255 0.0 1.6 0.00 0.79 0.00 76 1012.1
20260510210204 18 261 0.0 3.2 0.00 0.79 0.00 76 1012.2
20260510205704 18 281 0.0 3.2 0.00 0.79 0.00 77 1012.1
20260510204704 19 292 1.6 4.8 0.00 0.84 0.00 78 1012.0
20260510204205 20 245 0.0 3.2 0.00 0.84 0.00 78 1011.7
20260510203704 20 164 0.0 3.2 0.00 0.86 0.00 76 1011.6
20260510203204 20 158 0.0 1.6 0.00 0.89 0.00 76 1011.4
20260510202704 20 158 0.0 3.2 0.00 0.89 0.00 75 1011.3
20260510202204 20 150 0.0 3.2 0.00 0.91 0.00 75 1011.4
20260510201704 20 166 1.6 4.8 0.00 0.94 0.00 75 1011.3
20260510201204 20 203 1.6 9.7 0.00 0.97 0.00 74 1011.4
20260510195704 20 162 3.2 4.8 0.00 1.19 0.00 74 1011.4
20260510195204 20 160 1.6 4.8 0.00 1.24 0.00 74 1011.5
20260510194704 20 161 3.2 4.8 0.00 1.27 0.00 73 1011.5
20260510194204 20 158 1.6 4.8 0.00 1.30 0.00 74 1011.6
20260510193704 20 145 3.2 4.8 0.00 1.30 0.00 73 1011.5
20260510192704 21 188 1.6 4.8 0.00 1.32 0.00 71 1011.5
20260510192204 21 157 3.2 4.8 0.00 1.35 0.00 71 1011.4
20260510191704 21 168 3.2 8.0 0.00 1.37 0.00 70 1011.5
20260510191204 21 182 3.2 4.8 0.00 1.40 0.00 69 1011.4
20260510190704 21 176 3.2 4.8 0.00 1.42 0.00 70 1011.4
20260510190204 21 198 3.2 4.8 0.00 1.42 0.00 71 1011.5
20260510185704 21 162 4.8 9.7 0.00 1.47 0.00 70 1011.7
20260510185204 21 154 1.6 4.8 0.00 1.50 0.00 70 1011.7
20260510184704 21 208 3.2 4.8 0.00 1.52 0.00 69 1011.7
20260510183704 21 134 3.2 4.8 0.00 1.60 0.00 70 1011.7
20260510183204 21 162 3.2 4.8 0.00 1.63 0.00 71 1011.7
20260510182704 21 123 3.2 4.8 0.00 1.63 0.00 70 1011.7
20260510182204 21 152 3.2 8.0 0.00 1.63 0.00 70 1011.8
20260510181204 21 159 3.2 4.8 0.00 1.63 0.00 72 1012.0
20260510180704 21 170 3.2 9.7 0.00 1.63 0.00 71 1012.1
20260510180204 21 179 3.2 4.8 0.00 1.63 0.00 70 1012.0
20260510175704 21 191 1.6 8.0 0.00 1.63 0.00 70 1012.0
20260510174204 21 205 3.2 8.0 0.00 1.63 0.00 72 1011.7
20260510173704 21 200 4.8 8.0 0.00 1.63 0.00 71 1011.8
20260510172704 20 143 3.2 4.8 0.00 1.63 0.00 73 1011.9
20260510172205 20 168 3.2 8.0 0.00 1.63 0.00 74 1012.0
20260510171704 20 139 3.2 8.0 0.00 1.63 0.00 74 1012.1
20260510170704 20 138 3.2 4.8 0.00 1.63 0.00 76 1012.0
20260510170204 19 113 3.2 9.7 0.00 1.63 0.00 74 1012.0
20260510165704 20 203 3.2 4.8 0.00 1.63 0.00 75 1012.1
20260510165204 19 205 4.8 4.8 0.00 1.63 0.00 76 1012.2
20260510164704 19 218 1.6 4.8 0.00 1.63 0.00 76 1012.2
20260510164204 19 194 3.2 4.8 0.00 1.63 0.00 76 1012.3
20260510163704 19 173 3.2 4.8 0.00 1.63 0.00 77 1012.3
20260510163205 19 159 3.2 8.0 0.00 1.63 0.00 77 1012.3
20260510162704 19 194 3.2 9.7 0.00 1.63 0.00 77 1012.4
20260510162204 18 182 3.2 8.0 0.00 1.63 0.00 79 1012.5
20260510161204 18 205 4.8 12.9 0.00 1.63 0.00 78 1012.4
20260510160204 18 180 4.8 8.0 0.00 1.63 0.00 80 1012.5
20260510155705 18 152 4.8 8.0 0.00 1.63 0.00 80 1012.5
20260510155204 18 206 3.2 9.7 0.00 1.63 0.00 82 1012.7
20260510154704 17 167 3.2 9.7 0.00 1.63 0.00 80 1012.7
20260510154204 17 188 3.2 4.8 0.00 1.63 0.00 81 1012.7
20260510153704 17 213 3.2 4.8 0.00 1.63 0.00 85 1012.8
20260510153204 17 122 1.6 3.2 0.00 1.63 0.00 85 1012.8
20260510152704 17 143 3.2 4.8 0.00 1.63 0.00 86 1012.8
20260510152204 16 128 1.6 4.8 0.00 1.63 0.00 86 1012.9
20260510151704 16 167 3.2 3.2 0.00 1.63 0.00 87 1012.9
20260510150205 16 187 1.6 3.2 0.00 1.63 0.00 87 1013.0
20260510145704 15 207 1.6 4.8 0.00 1.63 0.00 88 1012.9
20260510145204 15 102 0.0 3.2 0.00 1.63 0.00 89 1012.8
20260510144204 15 208 1.6 3.2 0.00 1.63 0.00 91 1012.8
20260510143204 14 230 0.0 4.8 0.00 1.63 0.00 92 1012.8
20260510142704 13 276 0.0 3.2 0.00 1.63 0.00 92 1012.7
20260510142205 13 205 1.6 4.8 0.00 1.63 0.00 93 1012.8
20260510141704 13 188 1.6 3.2 0.00 1.63 0.00 93 1012.8
20260510141204 13 208 0.0 4.8 0.00 1.63 0.00 94 1012.7
20260510135704 13 198 0.0 3.2 0.00 1.63 0.00 95 1012.5
20260510135204 13 182 0.0 3.2 0.00 1.63 0.00 95 1012.5
20260510134704 13 182 0.0 3.2 0.00 1.63 0.00 95 1012.6
20260510134204 13 196 0.0 3.2 0.00 1.63 0.00 95 1012.6
20260510133703 12 150 0.0 3.2 0.00 1.63 0.00 96 1012.7
20260510133204 12 161 0.0 1.6 0.00 1.63 0.00 96 1012.8
20260510132704 12 190 0.0 3.2 0.00 1.63 0.00 96 1012.8
20260510132204 12 233 0.0 3.2 0.00 1.63 0.00 96 1012.8
20260510131705 12 238 0.0 3.2 0.00 1.63 0.00 96 1012.7
20260510130704 12 258 0.0 3.2 0.00 1.63 0.00 96 1012.7
20260510130204 12 258 0.0 3.2 0.00 1.63 0.00 97 1012.8
20260510124704 12 268 0.0 3.2 0.00 1.63 0.00 97 1012.7
20260510123704 12 258 1.6 3.2 0.00 1.63 0.00 97 1012.6
20260510123203 12 261 1.6 3.2 0.00 1.63 0.00 97 1012.5
20260510122704 11 260 0.0 3.2 0.00 1.63 0.00 97 1012.4
20260510122204 11 260 1.6 3.2 0.00 1.63 0.00 97 1012.4
20260510121704 11 251 1.6 3.2 0.00 1.63 0.00 97 1012.3
20260510121205 11 297 0.0 1.6 0.00 1.63 0.00 97 1012.3
20260510120704 11 243 0.0 0.0 0.00 1.63 0.00 97 1012.3
20260510120204 11 243 0.0 1.6 0.00 1.63 0.00 97 1012.2
20260510115704 11 243 0.0 0.0 0.00 1.63 0.00 97 1012.2
20260510114704 11 243 0.0 0.0 0.00 1.63 0.00 97 1012.1
20260510114204 11 243 0.0 0.0 0.00 1.63 0.00 97 1011.9
20260510113205 11 243 0.0 1.6 0.00 1.63 0.00 97 1012.2
20260510112704 11 243 0.0 0.0 0.00 1.63 0.00 97 1012.1
20260510112204 11 243 0.0 0.0 0.00 1.63 0.00 97 1012.0
20260510111704 11 243 0.0 3.2 0.00 1.63 0.00 97 1012.0
20260510111204 11 243 0.0 0.0 0.00 1.63 0.00 97 1011.9
20260510110704 11 243 0.0 0.0 0.00 1.63 0.00 97 1011.8
20260510110204 11 243 0.0 0.0 0.00 1.63 0.00 97 1011.8
20260510105704 11 243 0.0 0.0 0.00 1.63 0.00 97 1011.8
20260510105204 11 243 0.0 1.6 0.00 1.63 0.00 97 1011.7
20260510104704 11 242 0.0 3.2 0.00 1.63 0.00 97 1011.7
20260510104204 11 152 0.0 3.2 0.00 1.63 0.00 97 1011.5
20260510103704 11 177 0.0 1.6 0.00 1.63 0.00 97 1011.4
20260510103204 11 179 0.0 3.2 0.00 1.63 0.00 97 1011.4
20260510102704 11 179 0.0 1.6 0.00 1.63 0.00 97 1011.4
20260510102204 11 181 0.0 3.2 0.00 1.65 0.00 97 1011.4
20260510101703 11 181 0.0 3.2 0.00 1.65 0.00 97 1011.4
20260510101204 11 181 0.0 3.2 0.00 1.65 0.00 96 1011.5
20260510100704 11 181 0.0 3.2 0.00 1.65 0.00 96 1011.6
20260510100204 11 181 0.0 0.0 0.00 1.65 0.00 96 1011.7
20260510095704 11 181 0.0 0.0 0.00 1.65 0.00 96 1011.8
20260510095204 11 181 0.0 0.0 0.00 1.65 0.00 96 1011.8
20260510094206 11 181 0.0 3.2 0.00 1.65 0.00 97 1011.7
20260510093704 11 181 0.0 3.2 0.00 1.65 0.00 97 1011.6
20260510093204 11 181 0.0 3.2 0.00 1.65 0.00 96 1011.6
20260510092704 11 231 0.0 3.2 0.00 1.65 0.00 96 1011.7
20260510092204 11 231 0.0 1.6 0.00 1.65 0.00 96 1011.8
20260510091704 11 231 0.0 0.0 0.00 1.65 0.00 96 1011.6
20260510091204 11 231 0.0 0.0 0.00 1.65 0.00 96 1011.7
20260510090704 11 231 0.0 0.0 0.00 1.65 0.00 96 1011.9
20260510090204 11 231 0.0 0.0 0.00 1.65 0.00 97 1012.0
20260510085704 11 231 0.0 1.6 0.00 1.65 0.00 97 1011.9
20260510084704 11 231 0.0 0.0 0.00 1.65 0.00 97 1011.7
20260510084204 11 231 0.0 1.6 0.00 1.68 0.00 97 1011.7
20260510083704 11 231 0.0 0.0 0.00 1.68 0.00 97 1011.7
20260510083204 11 231 0.0 3.2 0.00 1.68 0.00 97 1011.8
20260510081204 11 167 0.0 0.0 0.00 1.68 0.00 97 1011.4
20260510080704 11 167 0.0 0.0 0.00 1.68 0.00 97 1011.5
20260510080204 11 167 0.0 0.0 0.00 1.68 0.00 97 1011.3
20260510074703 11 167 0.0 0.0 0.00 1.68 0.00 96 1011.3
20260510074204 11 167 0.0 0.0 0.00 1.68 0.00 96 1011.3
20260510073704 11 167 0.0 0.0 0.00 1.68 0.00 97 1011.4
20260510073204 11 167 0.0 0.0 0.00 1.68 0.00 97 1011.3
20260510072704 11 167 0.0 0.0 0.00 1.68 0.00 96 1011.3
20260510072204 11 167 0.0 0.0 0.00 1.68 0.00 96 1011.3
20260510071704 11 167 0.0 0.0 0.00 1.68 0.00 96 1011.4
20260510071204 11 167 0.0 0.0 0.00 1.68 0.00 97 1011.3
20260510070204 11 167 0.0 0.0 0.00 1.68 0.00 97 1011.4
20260510065704 11 167 0.0 0.0 0.00 1.68 0.00 97 1011.3
20260510064704 11 167 0.0 0.0 0.00 1.68 0.00 96 1011.4
20260510063704 11 167 0.0 0.0 0.00 1.68 0.00 96 1011.2
20260510063204 11 167 0.0 0.0 0.00 1.68 0.00 96 1011.2
20260510062704 11 167 0.0 0.0 0.00 1.68 0.00 96 1011.0
20260510062204 11 167 0.0 0.0 0.00 1.68 0.00 96 1010.8
20260510061204 11 167 0.0 0.0 0.00 1.68 0.00 96 1010.8
20260510060704 11 167 0.0 0.0 0.00 1.68 0.00 96 1010.9
20260510060204 11 167 0.0 0.0 0.00 1.68 0.00 96 1010.9
20260510055704 11 167 0.0 3.2 0.00 1.68 0.00 96 1011.0
20260510055204 11 167 0.0 0.0 0.00 1.68 0.00 96 1011.0
20260510054704 11 167 0.0 0.0 0.00 1.68 0.00 96 1011.2
20260510054204 11 167 0.0 0.0 0.00 1.68 0.00 96 1011.2
20260510053704 11 167 0.0 0.0 0.00 1.68 0.00 96 1011.2
20260510053204 11 167 0.0 0.0 0.00 1.68 0.00 96 1011.2
20260510052704 11 167 0.0 0.0 0.00 1.68 0.00 96 1011.1
20260510052204 11 167 0.0 0.0 0.00 1.68 0.00 96 1011.1
20260510051704 11 167 0.0 0.0 0.00 1.68 0.00 96 1011.1
20260510051204 11 167 0.0 0.0 0.00 1.68 0.00 96 1011.0
20260510050704 11 167 0.0 3.2 0.00 1.68 0.00 96 1011.1
20260510050204 11 167 0.0 1.6 0.00 1.68 0.00 96 1011.2
20260510045705 11 167 0.0 1.6 0.00 1.68 0.00 96 1011.3
20260510044704 11 167 0.0 0.0 0.00 1.68 0.00 96 1011.2
20260510044204 11 167 0.0 0.0 0.00 1.68 0.00 96 1011.2
20260510043704 11 167 0.0 0.0 0.00 1.68 0.00 96 1011.2
20260510043204 11 167 0.0 0.0 0.00 1.68 0.00 96 1011.1
20260510042704 11 167 0.0 0.0 0.00 1.68 0.00 96 1011.0
20260510042204 11 167 0.0 0.0 0.00 1.68 0.00 96 1011.0
20260510041704 11 167 0.0 0.0 0.00 1.68 0.00 96 1011.0
20260510041204 11 167 0.0 0.0 0.00 1.68 0.00 96 1011.0
20260510040204 11 167 0.0 0.0 0.00 1.68 0.00 96 1010.9
20260510034704 11 167 0.0 0.0 0.00 1.68 1.68 96 1011.1
20260510033704 11 154 0.0 3.2 0.00 1.68 1.68 96 1011.1
20260510033204 11 153 0.0 3.2 0.00 1.68 1.68 96 1011.1
20260510032703 11 181 0.0 3.2 0.00 1.68 1.68 96 1011.1
20260510032204 11 140 0.0 3.2 0.00 1.68 1.68 96 1011.1
20260510031704 11 109 0.0 3.2 0.00 1.68 1.68 96 1011.0
20260510031204 11 109 0.0 3.2 0.00 1.68 1.68 96 1011.0
20260510030704 11 202 0.0 3.2 0.00 1.68 1.68 96 1011.1
20260510025704 11 201 0.0 0.0 0.00 1.68 1.68 96 1010.9
20260510025204 11 201 0.0 0.0 0.00 1.68 1.68 96 1010.9
20260510024704 11 201 0.0 0.0 0.00 1.68 1.68 96 1010.9
20260510023704 11 201 0.0 0.0 0.00 1.68 1.68 96 1010.9
20260510023204 11 201 0.0 0.0 0.00 1.68 1.68 96 1010.9
20260510022705 11 201 0.0 0.0 0.00 1.68 1.68 96 1011.1
20260510021704 11 201 0.0 0.0 0.00 1.68 1.68 96 1011.0
20260510021204 11 201 0.0 0.0 0.00 1.68 1.68 96 1011.1
20260510020704 11 201 0.0 0.0 0.00 1.68 1.68 96 1011.0
20260510020204 11 201 0.0 0.0 0.00 1.68 1.68 96 1011.1
20260510015704 11 201 0.0 0.0 0.00 1.68 1.68 96 1011.1
20260510015204 12 201 0.0 0.0 0.00 1.68 1.68 96 1011.0
20260510014204 11 224 0.0 0.0 0.00 1.68 1.68 96 1011.2
20260510013204 12 224 0.0 0.0 0.00 1.68 1.68 96 1011.0
20260510012703 12 224 0.0 0.0 0.00 1.68 1.68 96 1011.0
20260510012204 12 224 0.0 3.2 0.00 1.68 1.68 96 1010.9
20260510011704 12 201 0.0 0.0 0.00 1.68 1.68 96 1010.8
20260510011204 12 201 0.0 3.2 0.00 1.68 1.68 96 1010.8
20260510010204 12 213 0.0 3.2 0.00 1.68 1.68 96 1010.8
20260510005704 12 199 0.0 3.2 0.00 1.68 1.68 96 1010.9
20260510005204 12 199 0.0 0.0 0.00 1.68 1.68 96 1010.7
20260510004704 12 199 0.0 0.0 0.03 1.68 1.68 96 1010.7
20260510004204 12 199 0.0 3.2 0.03 1.68 1.68 96 1010.6
20260510003704 12 194 0.0 3.2 0.03 1.68 1.68 96 1010.4
20260510003204 12 235 0.0 3.2 0.05 1.68 1.68 96 1010.5
20260510002704 12 133 0.0 3.2 0.08 1.68 1.68 96 1010.4
20260510002205 12 118 0.0 3.2 0.10 1.68 1.68 96 1010.3
20260510000704 12 118 0.0 3.2 0.18 1.68 1.68 96 1010.3
20260510000204 12 118 0.0 3.2 0.18 1.68 1.68 96 1010.2
20260509235705 12 205 1.6 4.8 0.20 1.68 1.68 96 1010.4
20260509235204 12 98 0.0 1.6 0.20 1.68 1.68 96 1010.1
20260509234704 12 98 0.0 3.2 0.23 1.65 1.65 96 1010.1
20260509234204 12 98 1.6 3.2 0.25 1.65 1.65 96 1010.1
20260509233704 12 111 1.6 3.2 0.28 1.65 1.65 96 1010.3
20260509232704 12 139 1.6 1.6 0.30 1.60 1.60 96 1010.5
20260509232204 12 132 0.0 3.2 0.30 1.57 1.57 96 1010.8
20260509231704 12 132 0.0 3.2 0.28 1.52 1.52 96 1010.9
20260509231204 12 137 0.0 3.2 0.30 1.52 1.52 96 1011.0
20260509230704 12 84 0.0 1.6 0.30 1.50 1.50 95 1011.0
20260509230204 11 84 0.0 1.6 0.33 1.50 1.50 95 1011.0
20260509225704 11 84 0.0 3.2 0.33 1.47 1.47 95 1011.1
20260509225204 11 84 0.0 3.2 0.46 1.47 1.47 95 1011.2
20260509224704 11 84 0.0 3.2 0.46 1.42 1.42 95 1011.2